Weather History for Nasa Shuttle, FL

Change the Weather History Date:

Tuesday, July 16, 2013

  Actual Average Record
Temperature  
Mean Temperature 79 °F -  
Max Temperature 87 °F 86 °F 93 °F (2000)
Min Temperature 72 °F 71 °F 69 °F (1999)
Cooling Degree Days 14    
Growing Degree Days 29 (Base 50)    
Moisture  
Dew Point 74 °F    
Average Humidity 89    
Maximum Humidity 100    
Minimum Humidity 66    
Precipitation  
Precipitation 0.70 in - - ()
Sea Level Pressure  
Sea Level Pressure 30.16 in    
Wind  
Wind Speed 6 mph (East)    
Max Wind Speed 17 mph    
Max Gust Speed 25 mph    
Visibility 9 miles    
Events Rain    
Averages and records for this station are not official NWS values.
T = Trace of Precipitation, MM = Missing Value Source: NWS Daily Summary

Daily Weather History Graph

Daily Weather History Graph

Search for Another Location

Airport:

Trip Planner

Search our weather history database for the weather conditions in past years. The results will help you decide how hot, cold, wet, or windy it might be!

Date:

Astronomy

Jul. 16, 2013 Rise Set
Actual Time 6:35 AM EDT 8:21 PM EDT
Civil Twilight 6:09 AM EDT 8:48 PM EDT
Nautical Twilight 5:37 AM EDT 9:19 PM EDT
Astronomical Twilight 5:04 AM EDT 9:53 PM EDT
Moon 2:12 PM EDT (7/16) 12:50 AM EDT (7/16)
Length of Visible Light 14h 39m
Length of Day
13h 46m
First Quarter, 56% of the Moon is Illuminated
Jul 16
First Quarter
Jul 22
Full
Jul 29
Last Quarter
Aug 6
New
Aug 14
First Quarter

Hourly Weather History & Observations

Time (EDT) Temp. Heat Index Dew Point Humidity Pressure Visibility Wind Dir Wind Speed Gust Speed Precip Events Conditions
12:58 AM 74.7 °F - 73.9 °F 98% 30.16 in 10.0 mi East 4.6 mph - N/A   Clear
1:58 AM 75.0 °F - 74.3 °F 98% 30.14 in 10.0 mi East 4.6 mph - N/A   Clear
2:58 AM 74.8 °F - 74.5 °F 99% 30.12 in 10.0 mi East 4.6 mph - N/A   Partly Cloudy
3:58 AM 73.8 °F - 73.4 °F 99% 30.11 in 10.0 mi East 3.5 mph - N/A   Scattered Clouds
4:58 AM 72.9 °F - 72.7 °F 99% 30.13 in 10.0 mi ESE 3.5 mph - N/A   Partly Cloudy
5:58 AM 72.9 °F - 72.5 °F 99% 30.14 in 10.0 mi East 4.6 mph - N/A   Clear
6:03 AM 73.4 °F - 73.4 °F 100% 30.13 in 10.0 mi ENE 4.6 mph - N/A   Light Drizzle
6:32 AM 73.4 °F - 73.4 °F 100% 30.13 in 10.0 mi ENE 4.6 mph - N/A   Clear
6:39 AM 73.4 °F - 73.4 °F 100% 30.13 in 10.0 mi ENE 4.6 mph - N/A   Light Drizzle
6:49 AM 73.4 °F - 73.4 °F 100% 30.14 in 10.0 mi East 4.6 mph - N/A   Clear
6:54 AM 73.4 °F - 73.4 °F 100% 30.14 in 10.0 mi East 5.8 mph - N/A   Light Drizzle
6:58 AM 73.0 °F - 72.7 °F 99% 30.15 in 10.0 mi East 5.8 mph - 0.00 in   Light Drizzle
7:04 AM 73.4 °F - 73.4 °F 100% 30.13 in 10.0 mi East 4.6 mph - N/A   Clear
7:58 AM 78.1 °F - 75.6 °F 92% 30.15 in 10.0 mi East 5.8 mph - 0.00 in   Clear
8:58 AM 81.5 °F 87.2 °F 73.9 °F 78% 30.17 in 10.0 mi East 10.4 mph - N/A   Clear
9:58 AM 84.0 °F 91.9 °F 75.0 °F 74% 30.18 in 10.0 mi East 11.5 mph - N/A   Partly Cloudy
10:58 AM 85.3 °F 93.4 °F 74.3 °F 70% 30.19 in 10.0 mi East 12.7 mph - N/A   Clear
11:58 AM 86.0 °F 95.1 °F 75.4 °F 70% 30.19 in 10.0 mi East 11.5 mph - N/A   Scattered Clouds
12:58 PM 86.4 °F 96.0 °F 75.6 °F 70% 30.18 in 10.0 mi East 15.0 mph - N/A   Scattered Clouds
1:58 PM 86.9 °F 96.4 °F 75.4 °F 68% 30.17 in 10.0 mi ENE 16.1 mph 21.9 mph N/A   Mostly Cloudy
2:58 PM 86.4 °F 95.1 °F 74.7 °F 68% 30.17 in 10.0 mi East 12.7 mph 20.7 mph N/A   Partly Cloudy
3:58 PM 86.5 °F 94.6 °F 73.9 °F 66% 30.16 in 10.0 mi East 13.8 mph 21.9 mph N/A   Partly Cloudy
4:34 PM 84.2 °F 90.9 °F 73.4 °F 70% 30.16 in 10.0 mi SE 17.3 mph 25.3 mph N/A Rain Heavy Rain
4:39 PM 80.6 °F 84.6 °F 71.6 °F 74% 30.15 in 10.0 mi SE 9.2 mph 25.3 mph N/A Rain Light Rain
4:43 PM 78.8 °F - 73.4 °F 83% 30.15 in 10.0 mi SE 9.2 mph 25.3 mph N/A   Scattered Clouds
4:58 PM 80.2 °F 85.4 °F 75.0 °F 84% 30.16 in 10.0 mi ESE 6.9 mph - 0.02 in   Scattered Clouds
4:59 PM 80.6 °F 86.2 °F 75.2 °F 84% 30.15 in 10.0 mi ESE 12.7 mph - N/A   Light Drizzle
5:09 PM 80.6 °F 85.4 °F 73.4 °F 79% 30.15 in 10.0 mi East 10.4 mph - N/A   Scattered Clouds
5:58 PM 80.6 °F 85.7 °F 74.3 °F 81% 30.16 in 10.0 mi ESE 8.1 mph - 0.00 in   Partly Cloudy
6:28 PM 82.4 °F 89.5 °F 75.2 °F 79% 30.14 in 10.0 mi East 5.8 mph - N/A   Mostly Cloudy
6:34 PM 80.6 °F 86.2 °F 75.2 °F 84% 30.15 in 10.0 mi East 6.9 mph - N/A Rain Light Rain
6:39 PM 80.6 °F 86.2 °F 75.2 °F 84% 30.16 in 1.5 mi East 10.4 mph - N/A Rain Heavy Rain
6:44 PM 78.8 °F - 73.4 °F 83% 30.16 in 0.8 mi East 8.1 mph 17.3 mph N/A Rain Heavy Rain
6:54 PM 75.2 °F - 71.6 °F 89% 30.16 in 1.8 mi Variable 2.3 mph - N/A Rain Heavy Rain
6:58 PM 75.2 °F - 71.6 °F 89% 30.17 in 3.0 mi ENE 2.3 mph - 0.66 in Rain Light Rain
7:04 PM 75.2 °F - 73.4 °F 94% 30.17 in 10.0 mi SE 2.3 mph - N/A   Mostly Cloudy
7:07 PM 75.2 °F - 73.4 °F 94% 30.17 in 10.0 mi ESE 2.3 mph - N/A Rain Light Rain
7:12 PM 75.2 °F - 73.4 °F 94% 30.16 in 9.0 mi NNE 1.2 mph - N/A Rain Light Rain
7:29 PM 75.2 °F - 73.4 °F 94% 30.15 in 10.0 mi NE 2.3 mph - N/A   Scattered Clouds
7:58 PM 75.2 °F - 74.8 °F 99% 30.16 in 10.0 mi NE 3.5 mph - 0.02 in   Partly Cloudy
8:50 PM 75.2 °F - 75.2 °F 100% 30.15 in 10.0 mi ENE 3.5 mph - N/A   Light Drizzle
8:58 PM 74.7 °F - 74.5 °F 99% 30.16 in 10.0 mi NE 4.6 mph - 0.00 in Rain Light Rain
9:14 PM 75.2 °F - 73.4 °F 94% 30.15 in 10.0 mi East 5.8 mph - N/A   Clear
9:58 PM 74.3 °F - 73.9 °F 99% 30.17 in 10.0 mi ENE 5.8 mph - 0.00 in   Clear
10:58 PM 74.1 °F - 73.9 °F 99% 30.18 in 10.0 mi ENE 4.6 mph - N/A   Clear
11:58 PM 74.3 °F - 73.9 °F 99% 30.18 in 10.0 mi East 3.5 mph - N/A   Clear